Location: *
(49.1466°N, 1.6216°E)
Time: 00:57:10
(UTC+00:00)

Cosmos 1943 Rocket - Visible Passes

Search period start: 24 April 2024 00:00
Search period end: 04 May 2024 00:00
Orbit: 810 x 844 km, 71.0° (Epoch: 23 April)

Date Brightness Start Highest point End Pass type
(mag) Time Alt. Az. Time Alt. Az. Time Alt. Az.
24 Apr 2.1 01:25:46 10° NNW 01:31:27 69° WSW 01:32:15 60° SSW visible
24 Apr 4.1 03:12:20 10° WNW 03:13:42 11° W 03:13:42 11° W visible
24 Apr 4.1 23:23:02 10° NNW 23:27:41 25° NE 23:31:16 14° E visible
25 Apr 2.1 01:06:21 10° NNW 01:12:03 77° WSW 01:12:45 67° S visible
25 Apr 4.0 02:52:15 10° WNW 02:54:12 13° W 02:54:12 13° W visible
25 Apr 4.2 23:03:42 10° N 23:08:10 23° NE 23:11:51 13° E visible
26 Apr 2.0 00:46:56 10° NNW 00:52:39 86° WSW 00:53:19 71° SSE visible
26 Apr 3.9 02:32:24 10° WNW 02:34:48 15° W 02:34:48 15° W visible
26 Apr 4.2 22:44:23 10° N 22:48:38 21° NE 22:52:29 11° E visible
27 Apr 2.1 00:27:31 10° NNW 00:33:15 85° ENE 00:33:58 69° SE visible
27 Apr 3.8 02:12:39 10° WNW 02:15:27 17° W 02:15:27 17° W visible
27 Apr 4.3 22:25:03 10° N 22:29:06 20° NE 22:33:10 10° E visible
28 Apr 2.2 00:08:07 10° NNW 00:13:50 77° ENE 00:14:39 64° ESE visible
28 Apr 3.7 01:52:58 10° NW 01:56:08 19° W 01:56:08 19° W visible
28 Apr 4.4 22:05:44 10° N 22:09:35 18° NE 22:13:24 10° E visible
28 Apr 2.3 23:48:43 10° NNW 23:54:25 69° ENE 23:55:24 57° ESE visible
29 Apr 3.6 01:33:21 10° NW 01:36:53 22° W 01:36:53 22° W visible
29 Apr 4.4 21:46:26 10° N 21:50:02 17° NE 21:53:37 10° ENE visible
29 Apr 2.5 23:29:19 10° NNW 23:34:59 62° ENE 23:36:11 50° ESE visible
30 Apr 3.5 01:13:45 10° NW 01:17:40 24° W 01:17:40 24° W visible
30 Apr 4.5 21:27:09 10° N 21:30:29 16° NNE 21:33:49 10° ENE visible
30 Apr 2.6 23:09:57 10° NNW 23:15:33 56° NE 23:16:59 44° ESE visible
01 May 3.3 00:54:12 10° NW 00:58:28 28° W 00:58:28 28° W visible
01 May 4.5 21:07:51 10° N 21:10:55 15° NNE 21:13:59 10° ENE visible
01 May 2.8 22:50:34 10° NNW 22:56:06 50° NE 22:57:50 38° ESE visible
02 May 3.2 00:34:40 10° NW 00:39:19 31° W 00:39:19 31° W visible
02 May 4.5 20:48:35 10° N 20:51:22 14° NNE 20:54:07 10° ENE visible
02 May 2.9 22:31:11 10° NNW 22:36:39 45° NE 22:38:42 32° ESE visible
03 May 3.0 00:15:10 10° NW 00:20:12 36° WSW 00:20:12 36° WSW visible
03 May 4.5 20:29:21 10° N 20:31:46 13° NNE 20:34:12 10° NE visible
03 May 3.1 22:11:48 10° NNW 22:17:11 41° NE 22:19:36 27° E visible
